McDowell, VA (24458)

9:06 PM EDT on September 03, 2015 (GMT -0400)
KVAMONTE3 | | Change Station
CLOSE
Current Station
Personal Weather Station
Location: Monterey, VA
Elevation: 2924 ft
Nearby Weather Stations

Elev 2924 ft 38.41 °N, 79.58 °W | Updated 1 minute ago

Partly Cloudy
Partly Cloudy
67.3 °F
Feels Like 67.3 °F
N
0.0
Wind Variable Wind from SW
Gusts 1.0 mph

Today
High -- | Low -- °F
--% Chance of Precip.
Yesterday
High -- | Low -- °F
Precip. -- in
6:49 AM 7:45 PM
Waning Gibbous, 65% visible
Pressure 30.11 in
Visibility 10.0 miles
Clouds Scattered Clouds 11000 ft
Dew Point 64 °F
Humidity 89%
Rainfall 0.09 in
Snow Depth Not available.
UV 0 out of 12
Pollen 8.80 out of 12
Air Quality Not available.
Flu Activity Not available.
METAR KHSP 040050Z AUTO 33006KT 10SM SCT110 21/17 A3011 RMK AO2 LTG DSNT NE T02110172
Pressure 30.11 in
Visibility 10.0 miles
Clouds Scattered Clouds 11000 ft
Dew Point 64 °F
Humidity 89%
Rainfall 0.09 in
Snow Depth Not available.
UV 0 out of 12
Pollen 8.80 out of 12
Air Quality Not available.
Flu Activity Not available.
METAR KHSP 040050Z AUTO 33006KT 10SM SCT110 21/17 A3011 RMK AO2 LTG DSNT NE T02110172

10-Day Weather Forecast

×

Almanac

Astronomy

Sep. 03, 2015 Rise Set
Actual Time
Civil Twilight
Nautical Twilight
Astronomical Twilight
Moon
Length of Visible Light
Length of Day
Tomorrow will be .
, % of the Moon is Illuminated

Today's Extremes

State Highs State Lows

Community

WunderPhotos

Upload Photos

1,852,081 photos uploaded!

WunderBlogs® & News

Nearby

Air Quality

  Air Quality AQ Index Pollutant
Not available.

Snow Depth

Station Depth Elevation

Earthquake Activity

City Distance Mag. Time & Date
Minimum magnitude displayed is 2.5.

Coastal Water Temperatures

Place Temperature

Stations

Nearby Weather Stations

Station Location Temp. Windchill Dew Point Humidity Wind Precip. Elev Updated Type